Overview Statistics Trail Chart Weather Telemetry Raw packets
 

This is the latest recevied weather packets stored in our database for station/object AF0GV-15. If no packets are shown the sender has not sent any weather packets the latest 10 day(s).

<< 1 2 3 4 5 6 7 >>
Time Temp. Humidity Pressure Rain* Wind** Luminosity Snow
1788496895 26.67° C 74% 1011.3 hPa 0 mm - - -
1788495946 26.67° C 73% 1011.2 hPa 0 mm - - -
1788494997 27.22° C 71% 1011 hPa 0 mm - - -
1788494048 28.33° C 67% 1011.1 hPa 0 mm - - -
1788492150 28.89° C 65% 1011 hPa 0 mm - - -
1788491201 28.33° C 67% 1011 hPa 0 mm - - -
1788490252 27.22° C 72% 1010.9 hPa 0 mm - - -
1788489303 27.22° C 76% 1010.8 hPa 0 mm - - -
1788488355 27.78° C 75% 1010.7 hPa 0 mm - - -
1788487405 28.33° C 73% 1010.5 hPa 0 mm - - -
1788486456 28.89° C 70% 1010.4 hPa 0 mm - - -
1788485507 29.44° C 68% 1010.2 hPa 0 mm - - -
1788484558 30.56° C 62% 1009.9 hPa 0 mm - - -
1788482675 31.67° C 57% 1009.7 hPa 0 mm - - -
1788481712 32.78° C 55% 1009.7 hPa 0 mm - - -
1788480763 33.33° C 51% 1009.8 hPa 0 mm - - -
1788479813 34.44° C 49% 1009.8 hPa 0 mm - - -
1788478864 35° C 49% 1009.7 hPa 0 mm - - -
1788477915 35° C 47% 1009.8 hPa 0 mm - - -
1788476966 35.56° C 47% 1009.7 hPa 0 mm - - -
1788476017 35.56° C 46% 1009.7 hPa 0 mm - - -
1788474119 36.11° C 46% 1009.5 hPa 0 mm - - -
1788473170 36.11° C 46% 1009.6 hPa 0 mm - - -
1788472221 35.56° C 46% 1009.7 hPa 0 mm - - -
1788471272 35.56° C 45% 1010 hPa 0 mm - - -

* Rain latest hour (hover to see other rain measurements)
** Current wind speed in m/s (hover to see current wind gust speed)